User: anonymous   Login
Location: Unspecified
(0.0000°N, 0.0000°E)
Time: 19:11:25
(UTC+00:00)
Language:

PEASSS - Orbit

View from above orbital plane
View from above orbital plane
View from above satellite
View from above satellite

Ground track
Ground track

The orbit data is extracted from the following two-line orbital elements,

1 42015U 17008BV  18110.91817328 +.00001578 +00000-0 +68387-4 0  9995
2 42015 097.4525 176.1435 0005732 207.5687 152.5247 15.23856284065196
Epoch (UTC): 20 April 2018 22:02:10
Eccentricity: 0.0005732
inclination: 97.4525°
perigee height: 490 km
apogee height: 498 km
right ascension of ascending node: 176.1435°
argument of perigee: 207.5687°
revolutions per day: 15.23856284
mean anomaly at epoch: 152.5247°
orbit number at epoch: 6519

The dashed part of the orbit path shows where the satellite is in the earth's shadow,  

DLR